Voltar ao catálogo

METEOR 2-17 DEB

AtivoPO
NORAD 28990·DEBRIS·🇷🇺 Russia

Lançado Jan 30, 1988 de Plesetsk Cosmodrome

Loading…

Próximas Passagens (próximas 24 horas)

TLE

EnvelhecendoSource: Space-Track

Época: Sep 9, 2026, 02:10 UTC

1 28990U 88005E   26252.09033621  .00001538  00000-0  94948-3 0  9994
2 28990  82.5144 164.6672 0014574 287.7650  72.1931 14.04802491617529

Acompanhe METEOR 2-17 DEB em tempo real com AllMySat

Download on the App Store